Tracking 17753 objects as of 29-June-2016
HD Live streaming from Space Station
objects crossing your sky now

AZUR (GRS A)

Track AZUR (GRS A) now!
10-day predictions
AZUR (GRS A) is classified as:


NORAD ID: 4221
Int'l Code: 1969-097A
Perigee: 364.1 km
Apogee: 1,304.1 km
Inclination: 102.7 °
Period: 101.4 minutes
Semi major axis: 7205 km
RCS: 0.3339 m2 (medium)
Launch date: November 8, 1969
Source: Germany (GER)
Launch site: AIR FORCE WESTERN TEST RANGE (AFWTR)
Your satellite tracking list
Your tracking list is empty





NASA's NSSDC Master Catalog

Two Line Element Set (TLE):
1 04221U 69097A   16180.52265876  .00001289  00000-0  70107-4 0  9996
2 04221 102.6881 242.6339 0652299 290.9743  62.2835 14.19513648198942
Source of the keplerian elements: AFSPC

N2YO: 864